This demonstration page uses our WeatherBlox Daily Observations layout. Learn more.

39.29038, -76.61219

Hourly Observations for May 29, 2019

Temp ( °F °C ) Dew Point ( °F °C ) Humidity (%) Winds ( mph kmh ) Pressure ( in mb ) Visibility ( mi km ) Precip ( " mm )
12:54 am 00:54 undefined 79 26.1 60 15.6 52 52 undefined N/A 29.74 1007 N/A 0 0
1:54 am 01:54 undefined 77 25 59 15 54 54 undefined N/A 29.71 1006 N/A 0 0
2:54 am 02:54 undefined 76 24.4 60 15.6 58 58 undefined N/A 29.71 1006 N/A 0 0
3:54 am 03:54 undefined 75 23.9 60 15.6 60 60 undefined N/A 29.71 1006 N/A 0 0
4:54 am 04:54 undefined 73 22.8 61 16.1 66 66 undefined N/A 29.74 1007 N/A 0 0
5:54 am 05:54 undefined 73 22.8 61 16.1 66 66 undefined N/A 29.74 1007 N/A 0 0
6:54 am 06:54 undefined 75 23.9 62 16.7 64 64 undefined N/A 29.74 1007 N/A 0 0
7:54 am 07:54 undefined 80 26.7 63 17.2 56 56 undefined N/A 29.74 1007 N/A 0 0
8:54 am 08:54 undefined 83 28.3 64 17.8 53 53 undefined N/A 29.74 1007 N/A 0 0
9:54 am 09:54 undefined 86 30 67 19.4 53 53 undefined N/A 29.74 1007 N/A 0 0
10:54 am 10:54 undefined 89 31.7 67 19.4 48 48 undefined N/A 29.71 1006 N/A 0 0
11:54 am 11:54 undefined 91 32.8 66 18.9 44 44 undefined N/A 29.71 1006 N/A 0 0
12:54 pm 12:54 undefined 93 33.9 66 18.9 41 41 undefined N/A 29.68 1005 N/A 0 0
3:54 pm 15:54 undefined 92 33.3 67 19.4 44 44 undefined N/A 29.65 1004 N/A 0 0
4:54 pm 16:54 undefined 92 33.3 67 19.4 44 44 undefined N/A 29.62 1003 N/A 0 0
5:54 pm 17:54 undefined 83 28.3 66 18.9 57 57 undefined N/A 29.65 1004 N/A 0 0
6:54 pm 18:54 undefined 83 28.3 69 20.6 63 63 undefined N/A 29.68 1005 N/A 0.03 0.762
7:54 pm 19:54 undefined 78 25.6 66 18.9 67 67 undefined N/A 29.68 1005 N/A 0 0
8:54 pm 20:54 undefined 78 25.6 66 18.9 67 67 undefined N/A 29.71 1006 N/A 0 0
9:54 pm 21:54 undefined 78 25.6 65 18.3 64 64 undefined N/A 29.74 1007 N/A 0 0
10:54 pm 22:54 undefined 76 24.4 65 18.3 69 69 undefined N/A 29.74 1007 N/A 0 0
11:54 pm 23:54 undefined 77 25 65 18.3 66 66 undefined N/A 29.74 1007 N/A 0 0

Powered by AerisWeather